{"data":{"norad_id":64736,"epoch":"2026-05-24T12:42:23.273856Z","epoch_age_seconds":109000,"freshness":"FRESH","line1":"1 64736U 25144N   26144.52943604  .00022012  00000+0  75308-3 0  9994","line2":"2 64736  53.1585 188.7451 0001037  71.9562 288.1552 15.30201588 51325","mean_motion":15.30201588,"eccentricity":0.0001037,"inclination_deg":53.1585,"raan_deg":188.7451,"arg_perigee_deg":71.9562,"mean_anomaly_deg":288.1552,"bstar":0.00075308,"rev_number":5132,"period_min":94.105248046573,"perigee_km":474.49963582376,"apogee_km":475.92102005957,"semimajor_km":6853.3473279417,"source":"CELESTRAK","updated_at":"2026-05-25T13:38:20.546502Z"}}